Hourly Data Report for October 12, 2016

All times are specified in Local Standard Time (LST). Add 1 hour to adjust for Daylight Saving Time where and when it is observed.

KAMLOOPS A
BRITISH COLUMBIA

50°42'09.000" N
120°26'55.000" W
345.30 m
1163781
71887
YKA

Download Data

Hourly Data (October 2016)
Hourly Data Report for October 12, 2016
Temp Definition
°C
Dew Point Temp Definition
°C
Rel Hum Definition
%
Wind Dir Definition
10's deg

Wind Spd Definition
km/h
Visibility Definition
km
Stn Press Definition
kPa
Hmdx Definition


Wind Chill Definition


Weather Definition


TIME
00:00 Legend Double Dagger 1.6 -1.8 78 11 15 64.4 98.35     LegendNANA
01:00 Legend Double Dagger 1.1 -1.8 81 11 16 64.4 98.33     Clear
02:00 Legend Double Dagger 0.5 -2.1 83 10 15 64.4 98.31     LegendNANA
03:00 Legend Double Dagger 0.1 -1.8 87 11 13 64.4 98.30     LegendNANA
04:00 Legend Double Dagger -0.4 -2.0 89 11 14 64.4 98.24   -5 Clear
05:00 Legend Double Dagger -0.2 -2.0 88 12 12 64.4 98.22   -4 LegendNANA
06:00 Legend Double Dagger -0.5 -2.4 87 10 14 64.4 98.21   -5 LegendNANA
07:00 Legend Double Dagger -0.6 -1.9 91 10 14 64.4 98.20   -5 Mainly Clear
08:00 Legend Double Dagger 0.3 -2.1 84 11 12 64.4 98.18     LegendNANA
09:00 Legend Double Dagger 2.1 -1.0 80 10 15 64.4 98.13     LegendNANA
10:00 Legend Double Dagger 4.3 0.3 75 10 20 64.4 98.03     Clear
11:00 Legend Double Dagger 5.6 0.4 69 11 21 64.4 97.89     LegendNANA
12:00 Legend Double Dagger 7.5 -0.2 58 12 17 64.4 97.76     LegendNANA
13:00 Legend Double Dagger 9.5 -0.1 51 11 11 64.4 97.64     Mainly Clear
14:00 Legend Double Dagger 11.0 0.5 48 14 13 64.4 97.53     LegendNANA
15:00 Legend Double Dagger 11.9 0.1 44 12 8 64.4 97.43     LegendNANA
16:00 Legend Double Dagger 12.0 0.5 45 10 7 64.4 97.35     Mostly Cloudy
17:00 Legend Double Dagger 10.3 0.4 50 11 16 64.4 97.27     LegendNANA
18:00 Legend Double Dagger 8.5 0.5 57 10 14 64.4 97.23     LegendNANA
19:00 Legend Double Dagger 8.2 1.2 61 9 16 64.4 97.24     Mostly Cloudy
20:00 Legend Double Dagger 8.1 1.1 61 10 16 64.4 97.20     LegendNANA
21:00 Legend Double Dagger 7.4 0.8 63 11 16 64.4 97.14     LegendNANA
22:00 Legend Double Dagger 7.6 0.8 62 11 16 64.4 97.09     Cloudy
23:00 Legend Double Dagger 7.8 1.0 62 11 17 64.4 97.05     LegendNANA

Notes on Data Quality.

Legend

  • E = Estimated
  • M = Missing
  • NA = Not Available
  • ‡ = Partner data that is not subject to review by the National Climate Archives
Date modified: